Вернуться в каталог

NIMBUS 2 DEB

АктивенSSO
NORAD 49249·DEBRIS·🇺🇸 United States

Запущен May 15, 1966 с Vandenberg Space Force Base

Loading…

Ближайшие Пролёты (ближайшие 24 часа)

TLE

СвежийSource: Space-Track

Эпоха: Sep 14, 2026, 08:08 UTC

1 49249U 66040BX  26257.33943888  .00001397  00000-0  25582-2 0  9996
2 49249 100.4376 114.5689 0054667  42.9273 317.6102 13.41817258251198

Отслеживайте NIMBUS 2 DEB в реальном времени с AllMySat

Download on the App Store